STARLINK-2336 (47879 NORAD) Tracking and Keplerian Element Data

This shows tracking and keplerian element data for the satellite.

Feedback or suggestion? Click here.




ElementValue
Catalog47879
NameSTARLINK-2336
Epoch Orbit196
Epoch Day173.91668981
Epoch Year2021
RAAN91.4082
Inclination53.0616
Eccentricity0.000144
Argument of Perigee74.0149
Mean Anonmoly295.3629
Mean Motion15.06397522
Decay Rate-3.715E-05
L11 47879U 21021V 21173.91668981 -.00003715 00000-0 -23062-3 0 9997
L22 47879 53.0616 91.4082 0001440 74.0149 295.3629 15.06397522 1968

Live tracking and technical data element details for STARLINK-2336 (NORAD 47879). STARLINK-2336 can be tracked NOW for your location showing map with azimuth and elevation plus other details from your city location.

Track the satellite on the map from your city or location and see movement details for azimuth, elevation, latitude, longitude, range, height, and movement on the map or in text.







IsCatalogInMostPopularTable: catalog: 47879, numindb: 46
Update: records affected: 1



GetName: 47879 STARLINK-2336

Hit Count: updated at: Thu, 24 Jun 2021 02:08:19 GMT